Regional Weather Roundup
Issued by NWS

Home | Current Version | Previous Version | Text Only | Print | Product List | Glossary Off
Versions: 1 2 3 4 5 6 7 8 9 10 11 12 13 14 15 16 17 18 19 20 21 22 23 24 25 26 27 28 29 30 31 32 33 34 35 36 37 38 39 40 41 42 43 44 45 46 47 48 49 50

000
ASUS43 KOAX 240102
RWRNE

WEATHER ROUNDUP FOR NEBRASKA
NATIONAL WEATHER SERVICE OMAHA NE
800 PM CDT FRI JUN 23 2017

NOTES: SATELLITE DATA IS BEING USED TO AUGMENT CLOUD COVER ABOVE
       12000 FEET.
       "FAIR" INDICATES FEW OR NO CLOUDS BELOW 12,000 FEET WITH NO
       SIGNIFICANT WEATHER AND/OR OBSTRUCTIONS TO VISIBILITY.

  * THESE STATIONS DO NOT REPORT WEATHER SUCH AS RAIN...SNOW OR FOG.

NEZ001>004-019>022-054>056-240200-
NEBRASKA PANHANDLE

CITY           SKY/WX    TMP DP  RH WIND       PRES   REMARKS
SCOTTSBLUFF    CLOUDY    72  29  20 N16G26    30.19R
ALLIANCE       SUNNY     69  29  22 N17       30.18R
CHADRON        SUNNY     70  36  28 NE13G18   30.17R
GORDON         FAIR      67  33  28 N15G21    30.18R
KIMBALL        MOSUNNY   68  39  33 N12       30.23R
SIDNEY         PTSUNNY   70  37  29 N14       30.20R
$$

NEZ057>060-069>072-079>082-240200-
SOUTHWEST NEBRASKA

CITY           SKY/WX    TMP DP  RH WIND       PRES   REMARKS
NORTH PLATTE   SUNNY     73  39  29 N14G23    30.12R
IMPERIAL       MOSUNNY   74  36  25 W9        30.14R
LEXINGTON      SUNNY     73  43  34 N12       30.11R
MCCOOK         SUNNY     77  37  23 NW12      30.10R
OGALLALA       SUNNY     76  32  20 NW12G17   30.15R
$$

NEZ005>010-023>029-035>040-094-240200-
NORTH CENTRAL NEBRASKA

CITY           SKY/WX    TMP DP  RH WIND       PRES   REMARKS
VALENTINE      SUNNY     71  29  21 N18       30.14R
AINSWORTH      SUNNY     68  35  30 N15       30.13R
BROKEN BOW     SUNNY     71  41  33 N12       30.12R
O`NEILL        SUNNY     69  38  31 NW14G21   30.10R
ORD            SUNNY     70  38  31 NW13      30.09R
THEDFORD       SUNNY     69  37  30 N10G16    30.15R
$$

NEZ041-046>049-061>064-073>077-083>087-240200-
SOUTH CENTRAL NEBRASKA

CITY           SKY/WX    TMP DP  RH WIND       PRES   REMARKS
GRAND ISLAND   MOSUNNY   72  45  37 N14       30.09R
AURORA         MOSUNNY   71  45  38 N14       30.08R
HASTINGS       SUNNY     73  45  36 N14       30.10R
HEBRON         CLEAR     75  46  35 N9        30.06R
HOLDREGE       SUNNY     72  43  34 N8        30.09S
KEARNEY *      SUNNY     72  43  35 N13       30.10R
$$

NEZ011>018-030>034-042>045-240200-
NORTHEAST NEBRASKA

CITY           SKY/WX    TMP DP  RH WIND       PRES   REMARKS
NORFOLK        SUNNY     69  37  30 N15G24    30.04R
ALBION         MOSUNNY   71  39  31 NW8G18    30.08R
BLAIR          CLOUDY    70  49  46 NW8       30.03R
FREMONT        MOCLDY    71  47  41 NW17      30.04R
TEKAMAH        PTCLDY    72  45  37 NW16      30.02R
WAYNE          SUNNY     71  39  31 NW18      30.03S
$$

NEZ050>053-065>068-078-088>093-240200-
SOUTHEAST NEBRASKA

CITY           SKY/WX    TMP DP  RH WIND       PRES   REMARKS
LINCOLN        CLEAR     74  48  39 NW14      30.05R
OMAHA EPPLEY   MOCLDY    71  48  43 NW13      30.01R
BEATRICE       PTCLDY    73  51  46 N12       30.05R
FALLS CITY     CLEAR     72  52  49 N6        30.01R
NEBRASKA CITY  PTCLDY    71  53  53 N8        30.03R
PLATTSMOUTH    PTCLDY    70  50  48 NW7       30.03R
$$

NEZ044-045-051>053-067-240200-
OMAHA AREA

CITY           SKY/WX    TMP DP  RH WIND       PRES   REMARKS
OMAHA EPPLEY   MOCLDY    71  48  43 NW13      30.01R
BLAIR          CLOUDY    70  49  46 NW8       30.03R
FREMONT        MOCLDY    71  47  41 NW17      30.04R
MILLARD        CLOUDY    74  51  44 NW12      30.02R
OFFUTT AFB     PTCLDY    71  48  45 NW10      30.01R
PLATTSMOUTH    PTCLDY    70  50  48 NW7       30.03R
WAHOO          FAIR      72  45  38 N14       30.04R
$$




USA.gov is the U.S. government's official web portal to all federal, state and local government web resources and services.